Wind_Speed
23 19 17 13 10 8 12 10 11 4 11 19 26 27 28 36 37 35 36 36 37 37 36 33 33 33 33 33 34 35 33 32 31 31 32 34 35 37 40 43 46 50 52 52
15 9 6 3 4 5 9 14 15 12 17 22 24 27 27 35 39 38 36 35 33 32 31 32 33 32 31 32 32 31 30 29 29 30 31 32 35 39 42 46 48 50 51 54
17 15 10 5 8 11 17 21 16 15 22 22 29 31 31 36 38 38 37 34 31 29 30 30 29 28 28 28 27 25 25 25 26 28 30 33 37 41 45 47 49 52 55 57
14 19 18 10 9 9 11 15 20 27 29 25 25 26 26 24 23 28 29 26 24 24 24 22 21 20 20 20 20 20 21 23 26 29 33 36 40 43 46 49 52 54 56 59
14 15 16 20 19 19 21 27 29 30 29 26 25 23 22 20 19 18 19 18 17 15 14 13 13 13 13 15 16 18 21 25 28 32 35 38 41 44 48 51 53 55 59 61
11 10 12 17 21 19 21 25 21 18 19 17 18 19 18 18 17 16 15 14 13 11 10 10 10 10 12 14 17 21 24 27 30 33 36 39 43 46 49 51 54 58 59 59
7 6 6 9 13 14 13 13 12 11 11 13 14 14 14 14 14 13 11 8 7 7 7 8 10 13 15 17 20 23 26 29 32 35 38 41 44 46 49 53 55 56 57 60
6 7 7 7 8 8 8 9 11 12 13 13 13 13 13 13 13 12 10 9 8 9 11 13 15 16 18 20 23 26 28 31 34 37 39 41 44 47 51 53 53 55 57 62
6 7 7 7 6 6 6 7 7 7 8 10 12 13 13 12 11 11 10 10 11 13 14 16 18 20 22 24 26 29 31 34 35 37 39 42 46 49 50 51 53 56 61 66
10 9 8 5 3 2 4 5 7 8 8 10 12 12 12 11 10 10 11 12 14 15 16 18 19 21 24 27 30 32 33 35 36 38 41 44 46 48 49 51 55 59 65 71
14 12 11 7 4 3 4 5 5 7 9 10 12 12 11 12 12 13 15 14 15 15 16 17 20 23 27 30 32 32 33 35 38 40 43 45 46 47 50 54 58 64 70 76
16 15 13 10 5 5 7 4 1 3 5 5 7 10 12 14 15 15 14 13 14 15 17 20 24 27 29 30 30 32 34 37 39 41 43 44 46 49 53 59 65 71 76 82
14 16 14 10 8 8 7 4 4 6 5 5 6 6 7 10 10 10 10 13 15 17 21 24 27 28 29 29 31 33 35 38 40 41 42 45 48 52 58 64 70 76 80 85
15 15 16 15 13 12 9 6 5 6 5 6 6 6 6 5 6 9 13 16 18 21 24 26 28 28 29 30 32 35 37 38 39 41 43 47 52 57 62 67 72 77 82 87
21 19 19 17 16 17 16 12 9 7 6 7 6 5 6 9 11 14 16 19 22 24 26 27 28 28 30 32 34 35 36 37 39 42 46 52 57 62 67 71 75 80 84 89
22 21 19 16 14 14 15 15 14 12 10 8 7 9 11 14 17 19 22 23 25 26 26 27 28 29 31 32 34 34 36 38 41 46 51 57 61 65 69 73 78 83 88 86
13 16 16 15 12 11 12 13 14 14 13 13 13 15 17 20 23 24 25 26 26 26 26 27 28 30 31 32 33 35 37 40 45 50 55 60 63 67 71 76 81 87 85 75
9 13 14 12 11 12 14 15 15 15 16 18 19 21 23 24 25 26 26 26 26 26 26 27 28 30 31 32 34 36 40 45 50 54 58 62 66 70 74 79 85 84 73 61
12 12 12 11 13 13 14 15 16 18 19 21 22 23 24 25 26 26 26 26 26 26 27 27 29 31 31 33 36 40 45 49 53 57 61 65 69 72 78 84 83 73 60 50
17 15 13 12 12 13 14 15 17 19 22 23 23 24 25 25 25 25 25 25 26 27 28 29 30 30 32 36 40 44 48 52 56 61 65 68 71 76 83 83 74 60 49 38
21 19 18 17 17 17 18 19 21 23 23 23 24 25 26 26 26 26 26 26 27 28 29 29 30 32 36 40 44 47 51 56 61 64 67 70 76 82 83 75 61 48 38 28
23 23 23 23 23 22 22 22 23 24 25 26 26 26 27 27 26 26 27 27 28 28 28 30 32 36 39 43 47 51 56 60 64 66 70 76 82 83 76 63 50 41 30 18
22 22 23 24 24 23 23 23 24 25 26 27 27 27 26 26 27 27 28 28 27 27 29 32 35 38 42 47 51 56 59 62 66 69 75 82 82 74 63 53 43 33 19 7
22 22 23 23 23 23 24 24 25 26 26 26 26 26 26 27 29 29 27 26 27 29 31 34 37 42 47 51 55 58 61 65 69 75 82 81 74 63 54 44 34 21 7 7
22 22 23 23 23 24 24 24 24 25 26 26 26 27 28 29 28 25 25 27 28 31 34 38 42 47 51 55 58 61 64 68 75 81 82 74 64 55 45 34 22 8 7 14
24 24 24 24 24 23 23 23 24 25 26 27 28 28 28 26 25 25 26 28 31 34 38 42 47 51 55 57 60 63 68 74 81 83 76 65 56 45 33 23 8 8 15 15
26 26 26 25 25 25 25 25 26 26 27 27 26 25 25 26 25 26 29 32 36 39 42 46 50 54 56 59 62 67 74 81 83 77 67 57 46 33 22 7 8 17 18 15
Wind_Direction
322 310 302 298 301 246 207 200 224 207 192 178 175 181 179 179 182 190 197 202 204 207 214 222 230 233 235 240 244 248 253 258 264 273 279 283 287 292 295 298 300 301 302 302
359 351 336 50 109 159 176 194 194 183 156 165 159 173 174 180 185 190 197 198 202 210 218 224 228 230 234 241 246 251 256 264 272 277 282 287 292 297 299 300 301 302 303 305
23 34 40 78 130 151 166 177 174 152 147 143 149 165 160 170 184 190 191 193 201 211 219 222 226 231 237 242 249 257 265 271 276 281 287 292 296 299 300 301 302 304 305 306
35 39 39 51 95 105 120 130 139 146 159 158 147 143 141 151 168 182 185 191 197 208 215 219 224 230 238 247 256 264 272 278 283 287 291 295 297 299 300 302 304 305 306 306
62 72 86 87 95 117 121 123 123 126 129 132 134 133 136 146 154 158 162 171 184 194 201 211 222 234 246 258 268 275 280 284 288 292 294 296 298 300 302 303 304 305 306 307
93 97 92 93 90 98 108 110 113 109 109 117 125 133 143 150 154 158 167 174 184 192 202 215 231 248 260 269 275 280 285 289 292 293 294 297 299 301 302 303 305 306 307 308
123 122 112 111 107 107 121 114 123 122 123 141 153 154 158 160 160 167 169 171 195 216 234 248 257 264 269 274 281 286 290 292 293 294 297 298 299 301 303 304 305 307 308 309
164 160 151 137 136 143 154 159 166 173 176 181 187 185 183 184 183 192 203 211 231 243 248 254 260 267 274 280 286 290 291 292 295 296 298 300 301 302 304 305 306 308 309 312
198 190 185 173 170 180 186 186 192 202 208 209 210 206 200 196 198 211 218 219 230 241 252 260 267 274 279 284 288 290 292 294 297 299 301 302 303 304 306 307 308 309 311 313
218 217 210 189 174 187 187 191 201 207 212 220 219 214 206 209 211 210 223 233 243 253 263 270 275 280 284 287 290 292 295 298 300 301 303 304 305 306 307 308 310 312 314 317
212 205 200 184 168 145 145 152 184 218 220 221 220 217 215 223 229 233 238 245 256 266 271 277 284 289 291 293 294 296 297 299 301 303 305 306 307 307 309 311 313 316 318 319
210 203 201 198 178 160 167 175 255 256 250 241 228 220 222 227 230 236 246 260 268 274 280 288 292 295 296 296 296 297 299 301 304 306 307 307 309 311 314 316 318 320 321 321
217 209 216 223 210 185 188 227 291 288 259 216 209 207 224 227 236 252 266 276 282 284 287 290 293 296 298 298 299 300 302 304 306 306 307 310 313 316 317 319 320 321 321 321
234 231 236 236 231 225 226 235 280 288 244 223 218 209 216 229 253 272 281 286 286 286 288 292 296 299 300 300 301 303 304 306 306 308 311 315 317 318 319 319 320 320 321 322
236 238 239 240 248 245 237 244 261 248 242 234 224 227 262 275 282 286 286 287 288 290 293 296 299 300 300 302 304 306 306 307 309 313 316 318 318 319 320 320 321 322 323 324
230 235 239 246 252 239 236 236 235 237 233 228 250 268 272 278 285 289 290 291 293 294 296 298 298 300 303 306 307 307 308 311 315 317 318 318 319 320 321 321 322 324 325 326
226 220 216 223 224 224 229 229 228 226 236 253 261 269 277 284 287 289 290 292 293 294 296 298 301 304 307 308 308 310 313 315 317 318 319 320 321 322 322 323 325 326 326 327
196 196 210 219 229 237 235 228 229 240 250 259 269 277 282 284 287 290 293 294 295 296 298 302 306 308 308 309 311 313 315 317 318 320 321 321 322 323 324 325 326 327 327 327
208 204 214 224 237 247 249 246 248 257 266 273 278 282 284 286 289 291 294 296 298 299 302 305 306 307 308 309 313 316 318 320 321 322 323 323 324 325 326 326 326 327 326 327
219 221 230 240 248 256 261 265 268 272 275 278 281 284 285 288 291 293 295 297 299 301 303 304 305 306 309 312 316 319 321 323 323 323 324 324 325 326 326 326 326 325 325 328
230 232 239 246 251 257 264 269 272 274 276 278 281 285 288 290 292 294 296 297 299 301 303 304 305 309 313 317 320 322 323 324 324 324 325 325 326 326 326 326 325 324 326 327
232 237 243 249 254 260 264 267 270 272 275 278 281 284 287 289 291 294 295 297 300 302 304 306 310 314 318 321 323 324 325 325 325 325 326 326 326 326 327 326 324 323 323 319
240 243 247 251 256 261 264 267 270 273 275 276 278 282 286 289 291 294 296 299 301 304 307 310 314 318 321 323 324 325 325 325 325 326 326 326 327 327 327 326 324 322 316 295
242 245 249 253 256 258 261 266 269 270 272 275 280 284 288 290 293 295 297 300 303 306 310 314 318 320 323 324 325 325 325 325 326 326 326 327 328 328 327 326 326 324 304 177
245 250 254 256 258 260 263 265 267 269 274 279 283 285 287 290 292 295 298 301 305 309 312 316 319 323 325 325 325 326 326 326 326 326 328 329 328 327 326 327 327 322 160 155
246 250 254 257 259 261 263 264 266 269 272 276 279 283 285 288 291 295 299 303 307 310 314 318 322 325 326 325 325 326 326 326 327 328 329 329 327 326 325 326 328 148 149 147
248 251 254 257 258 259 261 263 266 269 272 275 277 279 282 287 292 297 301 305 309 313 318 323 327 327 326 326 325 326 326 327 328 329 328 327 325 325 325 327 145 146 145 137
Height
5553 5549 5546 5545 5544 5541 5542 5544 5546 5554 5558 5563 5567 5574 5580 5587 5594 5605 5616 5625 5631 5638 5644 5649 5653 5656 5659 5662 5664 5665 5665 5666 5666 5665 5664 5662 5659 5656 5653 5649 5644 5638 5631 5625
5555 5551 5549 5548 5546 5544 5545 5547 5549 5553 5559 5563 5568 5578 5583 5589 5596 5605 5615 5623 5629 5635 5640 5645 5648 5651 5653 5656 5658 5659 5659 5659 5659 5657 5656 5654 5650 5647 5643 5638 5632 5627 5620 5613
5561 5556 5554 5552 5551 5549 5549 5550 5552 5556 5564 5567 5574 5580 5585 5590 5597 5603 5612 5619 5626 5632 5637 5640 5643 5645 5648 5651 5652 5653 5653 5653 5651 5650 5648 5645 5642 5638 5633 5628 5622 5615 5608 5601
5566 5563 5561 5560 5555 5554 5554 5555 5558 5562 5568 5573 5578 5582 5587 5593 5600 5606 5612 5619 5624 5630 5634 5636 5639 5642 5645 5646 5647 5647 5647 5645 5644 5642 5640 5636 5632 5628 5623 5617 5611 5604 5596 5589
5571 5570 5569 5566 5562 5560 5562 5566 5569 5573 5577 5582 5586 5589 5594 5600 5605 5609 5613 5619 5624 5628 5631 5633 5636 5638 5640 5641 5641 5640 5639 5638 5637 5635 5631 5627 5623 5618 5612 5606 5600 5592 5584 5576
5576 5576 5576 5575 5573 5573 5574 5576 5582 5584 5586 5590 5594 5598 5601 5604 5608 5612 5616 5619 5622 5625 5628 5631 5633 5634 5635 5635 5634 5634 5633 5632 5630 5626 5622 5618 5613 5608 5602 5596 5588 5581 5571 5563
5579 5580 5580 5580 5580 5582 5584 5585 5586 5588 5592 5595 5598 5600 5603 5605 5608 5612 5615 5617 5619 5622 5624 5626 5628 5629 5629 5629 5629 5628 5627 5624 5621 5617 5613 5609 5604 5598 5592 5585 5577 5569 5561 5551
5580 5580 5584 5582 5583 5585 5586 5586 5587 5589 5592 5595 5598 5600 5602 5604 5606 5610 5612 5615 5617 5619 5621 5622 5624 5624 5624 5624 5623 5621 5619 5616 5613 5609 5604 5599 5594 5588 5581 5574 5566 5558 5548 5538
5579 5582 5581 5582 5583 5585 5586 5587 5588 5589 5591 5594 5596 5598 5600 5602 5604 5607 5609 5612 5614 5616 5617 5618 5619 5619 5619 5617 5616 5614 5611 5608 5604 5600 5595 5590 5584 5577 5570 5562 5554 5545 5536 5525
5577 5578 5579 5581 5582 5584 5584 5585 5587 5589 5590 5593 5594 5596 5598 5599 5601 5604 5607 5609 5611 5612 5613 5614 5614 5613 5612 5611 5609 5606 5603 5599 5595 5591 5585 5579 5572 5565 5558 5550 5542 5533 5523 5512
5575 5577 5578 5579 5580 5582 5583 5585 5586 5588 5590 5591 5592 5593 5594 5597 5600 5602 5604 5606 5607 5608 5608 5609 5608 5608 5606 5603 5601 5598 5595 5591 5586 5581 5575 5569 5562 5554 5546 5538 5529 5520 5508 5496
5574 5576 5578 5579 5580 5580 5582 5583 5585 5586 5587 5587 5588 5590 5592 5595 5597 5599 5601 5602 5603 5604 5604 5603 5602 5600 5598 5596 5593 5590 5586 5582 5577 5571 5565 5558 5551 5543 5534 5525 5514 5502 5490 5476
5572 5575 5577 5579 5580 5580 5581 5583 5584 5585 5586 5586 5588 5590 5591 5593 5595 5597 5598 5599 5600 5600 5599 5598 5596 5593 5591 5588 5585 5582 5578 5573 5568 5562 5555 5549 5542 5534 5524 5512 5499 5486 5473 5457
5570 5573 5575 5577 5579 5580 5581 5582 5583 5584 5584 5585 5587 5588 5590 5591 5593 5594 5595 5595 5595 5594 5592 5590 5588 5586 5584 5581 5577 5573 5569 5564 5558 5552 5546 5539 5531 5521 5511 5500 5488 5473 5457 5442
5566 5569 5571 5574 5576 5577 5578 5580 5581 5582 5583 5584 5585 5586 5588 5590 5590 5591 5590 5590 5589 5587 5585 5584 5581 5579 5576 5573 5569 5565 5560 5554 5548 5542 5535 5527 5518 5508 5496 5484 5472 5458 5444 5427
5562 5565 5568 5569 5571 5571 5573 5576 5578 5580 5581 5582 5584 5585 5586 5586 5586 5585 5585 5584 5582 5581 5579 5577 5575 5572 5568 5565 5561 5556 5551 5545 5538 5532 5524 5515 5505 5494 5483 5470 5456 5442 5427 5412
5559 5561 5564 5566 5568 5570 5571 5573 5575 5577 5578 5580 5581 5581 5581 5581 5580 5580 5579 5577 5576 5574 5572 5570 5567 5564 5560 5556 5552 5546 5541 5535 5529 5521 5512 5502 5492 5480 5468 5455 5441 5427 5411 5396
5557 5559 5562 5564 5566 5568 5569 5571 5572 5574 5575 5576 5576 5576 5576 5575 5575 5574 5572 5571 5569 5567 5565 5562 5559 5555 5552 5548 5543 5538 5532 5525 5518 5509 5500 5489 5478 5467 5454 5441 5427 5412 5397 5384
5556 5558 5560 5562 5563 5565 5567 5568 5570 5571 5572 5572 5572 5571 5570 5569 5569 5567 5566 5564 5562 5560 5558 5554 5551 5547 5543 5539 5535 5529 5522 5515 5506 5497 5487 5476 5464 5452 5439 5426 5412 5398 5386 5376
5553 5555 5557 5559 5561 5562 5564 5565 5566 5567 5567 5567 5566 5565 5564 5563 5562 5561 5559 5557 5556 5553 5550 5546 5543 5539 5536 5531 5525 5519 5511 5504 5495 5485 5474 5463 5451 5438 5424 5410 5397 5386 5376 5368
5550 5551 5553 5555 5557 5558 5559 5560 5560 5560 5561 5561 5560 5559 5558 5557 5556 5554 5553 5551 5549 5546 5542 5539 5536 5532 5528 5522 5516 5509 5501 5492 5482 5472 5461 5449 5437 5423 5409 5395 5383 5373 5367 5362
5545 5547 5548 5550 5551 5552 5553 5553 5554 5554 5554 5554 5553 5552 5552 5551 5550 5548 5546 5544 5541 5538 5535 5532 5529 5524 5518 5512 5505 5498 5489 5479 5469 5459 5447 5435 5422 5408 5393 5380 5370 5363 5358 5355
5540 5541 5542 5543 5544 5545 5546 5547 5547 5547 5547 5547 5547 5546 5545 5544 5543 5542 5540 5537 5534 5532 5529 5525 5521 5515 5509 5502 5495 5486 5477 5466 5456 5444 5433 5420 5405 5391 5379 5368 5359 5353 5349 5349
5533 5535 5536 5537 5539 5539 5540 5540 5540 5540 5540 5540 5540 5540 5539 5538 5537 5535 5534 5531 5528 5525 5522 5517 5512 5506 5499 5492 5483 5474 5464 5453 5442 5430 5417 5403 5389 5377 5366 5357 5350 5346 5344 5346
5527 5529 5531 5532 5533 5533 5534 5534 5534 5534 5534 5534 5534 5534 5533 5532 5531 5529 5527 5524 5521 5518 5513 5508 5503 5496 5489 5480 5471 5461 5450 5440 5428 5415 5400 5387 5375 5365 5356 5349 5344 5342 5343 5346
5521 5522 5524 5525 5526 5527 5527 5528 5528 5528 5528 5528 5528 5528 5527 5526 5524 5522 5519 5516 5513 5509 5505 5499 5493 5486 5477 5469 5459 5448 5438 5426 5412 5398 5385 5374 5363 5355 5349 5344 5341 5342 5345 5349
5514 5515 5517 5517 5518 5519 5520 5521 5522 5522 5522 5522 5521 5521 5520 5519 5517 5515 5512 5509 5505 5501 5495 5489 5482 5475 5466 5457 5447 5436 5424 5411 5397 5384 5373 5363 5354 5348 5343 5341 5342 5345 5348 5352